Powrót do katalogu

STARLINK-30848

AktywnyŁącznośćVLEO
NORAD 58240·PAYLOAD·🇺🇸 United States

Wystrzelony Nov 8, 2023 z Cape Canaveral Space Force Station

Loading…

Następne Przeloty (najbliższe 24 godziny)

TLE

ŚwieżeSource: CelesTrak SupGP

Epoka: Sep 15, 2026, 03:02 UTC

1 58240C 23171L   26258.12687500  .00013946  00000+0  50499-3 0  2585
2 58240  43.0026 295.3170 0001616 270.3197 217.5314 15.27579368    13

Śledź STARLINK-30848 w czasie rzeczywistym z AllMySat

Download on the App Store